When you browse on this site, cookies collect data to enhance your experience and personalize the content and advertising you see.
Visit our Privacy Policy to learn more. By continuing to use the site, you agree to this use of cookies and data.
  • en France
  • Liste des pays
  • À 7 jours
  • Température de l'eau
  • Carte météo
  • Widgets météo
  • user-avatar
    Se connecter

    Météo par heure à Cordoba

    Ce jour, 20 Février, Jeudi

    Heure Température Précipitation Vent Pression Humidité
    00:00 +23°C° 0 mm 1 m/s 723 mmHg 49%
    01:00 +23°C° 0 mm 1 m/s 723 mmHg 50%
    02:00 +23°C° 0 mm 1 m/s 723 mmHg 51%
    03:00 +21°C° 0 mm 2 m/s 724 mmHg 48%
    04:00 +20°C° 0 mm 4 m/s 724 mmHg 46%
    05:00 +19°C° 0 mm 5 m/s 725 mmHg 44%
    06:00 +19°C° 0 mm 5 m/s 725 mmHg 40%
    07:00 +20°C° 0 mm 6 m/s 726 mmHg 36%
    08:00 +20°C° 0 mm 6 m/s 727 mmHg 32%
    09:00 +22°C° 0 mm 5 m/s 727 mmHg 30%
    10:00 +25°C° 0 mm 5 m/s 727 mmHg 27%
    11:00 +26°C° 0 mm 5 m/s 728 mmHg 24%
    12:00 +27°C° 0 mm 4 m/s 727 mmHg 23%
    13:00 +29°C° 0 mm 4 m/s 727 mmHg 21%
    14:00 +30°C° 0 mm 4 m/s 727 mmHg 20%
    15:00 +29°C° 0 mm 4 m/s 726 mmHg 20%
    16:00 +29°C° 0 mm 4 m/s 726 mmHg 20%
    17:00 +29°C° 0 mm 4 m/s 725 mmHg 21%
    18:00 +27°C° 0 mm 4 m/s 726 mmHg 23%
    19:00 +24°C° 0 mm 3 m/s 726 mmHg 26%
    20:00 +21°C° 0 mm 2 m/s 727 mmHg 28%
    21:00 +20°C° 0 mm 2 m/s 727 mmHg 30%
    22:00 +20°C° 0 mm 1 m/s 728 mmHg 32%
    23:00 +19°C° 0 mm 1 m/s 728 mmHg 33%

    Demain, 21 Février, Vendredi

    Heure Température Précipitation Vent Pression Humidité
    00:00 +18°C° 0 mm 1 m/s 728 mmHg 34%
    01:00 +18°C° 0 mm 1 m/s 728 mmHg 34%
    02:00 +18°C° 0 mm 1 m/s 728 mmHg 34%
    09:00 +23°C° 0 mm 2 m/s 730 mmHg 28%
    10:00 +25°C° 0 mm 2 m/s 730 mmHg 23%
    11:00 +27°C° 0 mm 2 m/s 731 mmHg 20%
    12:00 +28°C° 0 mm 2 m/s 730 mmHg 20%
    13:00 +29°C° 0 mm 3 m/s 729 mmHg 20%
    14:00 +30°C° 0 mm 3 m/s 729 mmHg 19%
    15:00 +30°C° 0 mm 3 m/s 729 mmHg 20%
    16:00 +30°C° 0 mm 3 m/s 728 mmHg 20%
    17:00 +30°C° 0 mm 3 m/s 728 mmHg 20%
    18:00 +27°C° 0 mm 3 m/s 728 mmHg 23%
    19:00 +24°C° 0 mm 2 m/s 728 mmHg 25%
    20:00 +20°C° 0 mm 2 m/s 728 mmHg 28%
    21:00 +20°C° 0 mm 1 m/s 729 mmHg 30%
    22:00 +19°C° 0 mm 1 m/s 729 mmHg 32%
    23:00 +18°C° 0 mm 1 m/s 729 mmHg 34%

    Après-demain, 22 Février, Samedi

    Heure Température Précipitation Vent Pression Humidité
    00:00 +18°C° 0 mm 1 m/s 729 mmHg 36%
    01:00 +15°C° 0 mm 0 m/s 729 mmHg 37%
    02:00 +15°C° 0 mm 0 m/s 729 mmHg 38%
    03:00 +14°C° 0 mm 0 m/s 729 mmHg 38%
    04:00 +14°C° 0 mm 0 m/s 729 mmHg 39%
    05:00 +14°C° 0 mm 0 m/s 729 mmHg 39%
    06:00 +18°C° 0 mm 1 m/s 729 mmHg 37%
    07:00 +20°C° 0 mm 1 m/s 729 mmHg 34%
    08:00 +21°C° 0 mm 1 m/s 730 mmHg 31%
    09:00 +23°C° 0 mm 2 m/s 730 mmHg 28%
    10:00 +25°C° 0 mm 2 m/s 730 mmHg 26%
    11:00 +27°C° 0 mm 3 m/s 730 mmHg 23%
    12:00 +28°C° 0 mm 3 m/s 729 mmHg 23%
    13:00 +29°C° 0 mm 4 m/s 728 mmHg 22%
    14:00 +30°C° 0 mm 4 m/s 728 mmHg 21%
    15:00 +30°C° 0 mm 4 m/s 727 mmHg 22%
    16:00 +29°C° 0 mm 4 m/s 726 mmHg 23%
    17:00 +29°C° 0 mm 4 m/s 726 mmHg 24%
    18:00 +27°C° 0 mm 4 m/s 726 mmHg 28%
    19:00 +24°C° 0 mm 3 m/s 725 mmHg 33%
    20:00 +21°C° 0 mm 3 m/s 725 mmHg 37%
    21:00 +21°C° 0 mm 3 m/s 726 mmHg 37%
    22:00 +20°C° 0 mm 2 m/s 726 mmHg 37%
    23:00 +19°C° 0 mm 2 m/s 726 mmHg 37%

    23 Février, Dimanche

    Heure Température Précipitation Vent Pression Humidité
    00:00 +19°C° 0 mm 2 m/s 726 mmHg 38%
    01:00 +19°C° 0 mm 1 m/s 725 mmHg 39%
    02:00 +19°C° 0 mm 1 m/s 725 mmHg 39%
    03:00 +18°C° 0 mm 1 m/s 725 mmHg 39%
    04:00 +18°C° 0 mm 1 m/s 725 mmHg 40%
    05:00 +18°C° 0 mm 1 m/s 725 mmHg 40%
    06:00 +19°C° 0 mm 2 m/s 725 mmHg 37%
    07:00 +21°C° 0 mm 2 m/s 725 mmHg 35%
    08:00 +22°C° 0 mm 3 m/s 725 mmHg 33%
    09:00 +25°C° 0 mm 4 m/s 725 mmHg 30%
    10:00 +27°C° 0 mm 5 m/s 725 mmHg 27%
    11:00 +29°C° 0 mm 5 m/s 725 mmHg 24%
    12:00 +30°C° 0 mm 5 m/s 724 mmHg 23%
    13:00 +32°C° 0 mm 5 m/s 724 mmHg 22%
    14:00 +33°C° 0 mm 6 m/s 723 mmHg 21%
    15:00 +33°C° 0 mm 6 m/s 722 mmHg 22%
    16:00 +32°C° 0 mm 6 m/s 721 mmHg 23%
    17:00 +32°C° 0 mm 6 m/s 721 mmHg 23%
    18:00 +28°C° 0 mm 5 m/s 721 mmHg 28%
    19:00 +26°C° 0 mm 4 m/s 721 mmHg 32%
    20:00 +22°C° 0 mm 3 m/s 721 mmHg 36%
    21:00 +22°C° 0 mm 3 m/s 721 mmHg 38%
    22:00 +21°C° 0 mm 3 m/s 721 mmHg 40%
    23:00 +21°C° 0 mm 3 m/s 721 mmHg 41%

    24 Février, Lundi

    Heure Température Précipitation Vent Pression Humidité
    00:00 +20°C° 0 mm 3 m/s 721 mmHg 42%
    01:00 +20°C° 0 mm 3 m/s 721 mmHg 42%
    02:00 +20°C° 0 mm 3 m/s 720 mmHg 42%
    03:00 +20°C° 0 mm 2 m/s 720 mmHg 43%
    04:00 +19°C° 0 mm 2 m/s 720 mmHg 44%
    05:00 +19°C° 0 mm 2 m/s 720 mmHg 44%
    06:00 +21°C° 0 mm 2 m/s 720 mmHg 41%
    07:00 +24°C° 0 mm 2 m/s 721 mmHg 38%
    08:00 +26°C° 0 mm 2 m/s 721 mmHg 35%
    09:00 +28°C° 0 mm 2 m/s 721 mmHg 31%
    10:00 +31°C° 0 mm 2 m/s 721 mmHg 27%
    11:00 +35°C° 0 mm 3 m/s 721 mmHg 23%
    12:00 +36°C° 0 mm 3 m/s 721 mmHg 20%
    13:00 +37°C° 0 mm 3 m/s 720 mmHg 18%
    14:00 +38°C° 0 mm 3 m/s 719 mmHg 16%
    15:00 +38°C° 0 mm 4 m/s 719 mmHg 17%
    16:00 +37°C° 0 mm 4 m/s 718 mmHg 18%
    17:00 +37°C° 0 mm 4 m/s 718 mmHg 18%
    18:00 +34°C° 0 mm 4 m/s 718 mmHg 24%
    19:00 +32°C° 0 mm 4 m/s 718 mmHg 29%
    20:00 +28°C° 0 mm 4 m/s 718 mmHg 34%
    21:00 +27°C° 0 mm 4 m/s 718 mmHg 37%
    22:00 +26°C° 0 mm 3 m/s 718 mmHg 40%
    23:00 +25°C° 0 mm 3 m/s 719 mmHg 43%

    25 Février, Mardi

    Heure Température Précipitation Vent Pression Humidité
    00:00 +25°C° 0 mm 3 m/s 718 mmHg 43%
    01:00 +25°C° 0 mm 3 m/s 718 mmHg 43%
    02:00 +24°C° 0 mm 3 m/s 718 mmHg 43%
    03:00 +24°C° 0 mm 2 m/s 718 mmHg 44%
    04:00 +24°C° 0 mm 2 m/s 718 mmHg 45%
    05:00 +23°C° 0 mm 2 m/s 718 mmHg 45%
    06:00 +25°C° 0 mm 2 m/s 719 mmHg 42%
    07:00 +26°C° 0 mm 3 m/s 719 mmHg 39%
    08:00 +28°C° 0 mm 4 m/s 720 mmHg 36%
    09:00 +29°C° 0 mm 4 m/s 720 mmHg 30%
    10:00 +32°C° 0 mm 4 m/s 720 mmHg 24%
    11:00 +33°C° 0 mm 4 m/s 719 mmHg 19%
    12:00 +35°C° 0 mm 3 m/s 719 mmHg 18%
    13:00 +36°C° 0 mm 3 m/s 719 mmHg 18%
    14:00 +37°C° 0 mm 2 m/s 718 mmHg 18%
    15:00 +37°C° 0 mm 2 m/s 718 mmHg 18%
    16:00 +37°C° 0 mm 2 m/s 717 mmHg 19%
    17:00 +37°C° 0 mm 2 m/s 717 mmHg 19%
    18:00 +34°C° 0 mm 2 m/s 717 mmHg 25%
    19:00 +30°C° 0 mm 2 m/s 718 mmHg 32%
    20:00 +27°C° 0 mm 2 m/s 718 mmHg 38%
    21:00 +26°C° 0 mm 2 m/s 719 mmHg 40%
    22:00 +25°C° 0 mm 3 m/s 720 mmHg 42%
    23:00 +24°C° 0 mm 3 m/s 721 mmHg 44%
    Voir plus